Location: Knobs
(40.8333°S, 175.2333°E)
Time: 02:23:06
(UTC+00:00)

ADEOS Rocket - Pass Details

Date: 12 June 2024
Orbit: 858 x 1306 km, 98.7° (Epoch: 22 July)

Event Time Altitude Azimuth Distance (km) Brightness Sun altitude
Rises 18:53:59 0° 6° (N) 3,697 6.5 -8.8°
Reaches altitude 10° 18:56:34 10° 2° (N) 2,699 5.7 -8.3°
Maximum altitude 19:02:28 62° 282° (WNW) 1,021 2.9 -7.3°
Drops below altitude 10° 19:08:02 10° 200° (SSW) 2,549 4.8 -6.3°
Sets 19:10:25 0° 197° (SSW) 3,478 5.5 -5.9°
